INS-1B

Last updated on Thu Oct 12 2023 00:03:36 GMT+0000 (Coordinated Universal Time)

1 41954U 17008G 23284.13082519 .10530053 23937-5 88102-3 0 9995 2 41954 97.1579 348.4945 0012241 270.7028 89.2869 16.39478005371103

Satellite not in orbit